Location: Newark
(33.9035°S, 18.4112°E)
Time: 04:19:42
(UTC+00:00)

STARLINK-1111 - Pass Details

Date: 25 January 2020
Orbit: 549 x 551 km, 53.0° (Epoch: 21 February)

Event Time Altitude Azimuth Distance (km) Brightness Sun altitude
Exits shadow 01:57:13 20° 235° (SW) 1,395 5.5 -22.0°
Maximum altitude 01:58:21 22° 213° (SSW) 1,314 5.6 -21.8°
Drops below altitude 10° 02:01:48 10° 161° (SSE) 1,923 7.3 -21.3°
Sets 02:04:29 0° 146° (SE) 2,815 8.7 -20.9°
